[[{"header":{"parameterUnit":"m.s-1","parameterCategory":1,"la1":30.2991,"la2":30.254,"lo1":-89.0895,"lo2":-89.0444,"dy":0.0017,"dx":0.0017,"nx":28,"ny":28,"refTime":"2025-09-06T03:00:00:Z","depth":0,"parameterNumber":2,"parameterNumberName":"U-component_of_WINDS"},"data":[0,0,0,0,0,0,0,0,0,0,0,0,0,0,0,0,0,0,0,0,0,0,0,0,0,0,0,0,0,0,0,0,0,0,0,0,0,0,0,0,0,0,0,0,0,0,0,0,0,0,0,0,0,0,0,0,0,0,-1.2204,-1.2204,0,-1.2211,-1.2211,-1.2211,-1.2178,-1.2177,-1.2176,-1.2175,-1.2183,-1.2184,-1.2185,0,0,0,0,0,0,0,0,0,0,0,0,0,-1.2162,-1.2163,-1.2204,-1.2204,-1.2204,-1.2211,-1.2211,-1.2211,-1.2178,-1.2177,-1.2176,-1.2175,-1.2183,-1.2184,-1.2185,0,0,0,0,0,0,0,0,0,0,0,0,0,-1.2176,-1.2163,-1.2204,-1.2189,-1.2187,-1.2211,-1.2211,-1.2211,-1.2178,-1.2177,-1.2175,-1.2174,-1.2182,-1.2184,-1.2185,-1.2225,0,0,-1.2191,-1.2191,0,0,0,0,0,0,0,0,-1.2175,-1.2178,-1.2191,-1.219,-1.2188,-1.2192,-1.2199,-1.2216,-1.2179,-1.2182,-1.2175,-1.2173,-1.2187,-1.2188,-1.2193,-1.2225,-1.2226,-1.2191,-1.2192,-1.2192,-1.2193,0,0,0,0,0,0,0,-1.2174,-1.2177,-1.2207,-1.2191,-1.2189,-1.2181,-1.2182,-1.2202,-1.2193,-1.2181,-1.2179,-1.218,-1.2186,-1.2191,-1.2193,-1.2226,-1.2191,-1.2192,-1.2193,-1.2194,-1.229,-1.2292,0,0,0,0,0,0,-1.2175,-1.2176,-1.2207,-1.2207,-1.2178,-1.2183,-1.2184,-1.2192,-1.2192,-1.2191,-1.2181,-1.2179,-1.2189,-1.2191,-1.2193,-1.2239,-1.2192,-1.2194,-1.2195,-1.2289,-1.2291,-1.2292,0,0,0,0,0,0,-1.2175,-1.2178,-1.2206,-1.2191,-1.2194,-1.2185,-1.2196,-1.2193,-1.2198,-1.2192,-1.219,-1.2188,-1.2188,-1.2191,-1.2217,-1.2239,-1.2195,-1.2196,-1.2287,-1.2289,-1.2291,-1.2332,0,0,0,0,0,0,-1.2174,-1.2178,-1.2193,-1.2192,-1.2195,-1.2231,-1.2197,-1.2194,-1.2201,-1.2198,-1.2198,-1.2197,-1.2187,-1.2215,-1.2219,-1.2241,-1.2198,-1.2285,-1.2288,-1.2291,-1.2329,-1.2336,-1.2342,0,0,0,0,0,-1.2172,-1.2205,-1.2194,-1.2198,-1.2214,-1.2232,-1.2234,-1.2222,-1.2203,-1.2218,-1.2214,-1.2197,-1.2236,-1.2218,-1.2222,-1.2245,-1.2283,-1.2287,-1.229,-1.2326,-1.2334,-1.2341,0,0,0,0,0,0,-1.221,-1.2204,-1.2193,-1.2226,-1.2229,-1.2226,-1.2245,-1.2231,-1.224,-1.2236,-1.2221,-1.2221,-1.225,-1.225,-1.223,-1.2283,-1.2256,-1.2261,-1.2282,-1.229,-1.2296,-1.2296,-1.2199,0,0,0,0,0,-1.2222,-1.2237,-1.2231,-1.2261,-1.2263,-1.2254,-1.2261,-1.2251,-1.2255,-1.2256,-1.2254,-1.2258,-1.2271,-1.228,-1.2292,-1.2328,-1.2328,-1.2346,-1.2352,-1.2357,-1.2362,-1.2381,-1.2389,-1.2304,-1.2304,-1.2304,0,0,-1.2247,-1.2246,-1.2257,-1.2269,-1.227,-1.2287,-1.2256,-1.2274,-1.2286,-1.2259,-1.2284,-1.2283,-1.2286,-1.2318,-1.2331,-1.2318,-1.2385,-1.2362,-1.2366,-1.2368,-1.2386,-1.2394,-1.2401,-1.2306,-1.2306,-1.2305,0,0,-1.2302,-1.2302,-1.2327,-1.2329,-1.2332,-1.2325,-1.2331,-1.233,-1.2328,-1.2352,-1.2332,-1.2346,-1.2369,-1.2372,-1.2377,-1.2431,-1.2416,-1.2435,-1.2469,-1.2488,-1.2495,-1.25,-1.2521,-1.2528,-1.244,-1.244,-1.244,0,-1.2333,-1.2357,-1.2342,-1.2361,-1.2367,-1.2343,-1.2368,-1.2371,-1.2378,-1.2382,-1.2367,-1.2395,-1.2395,-1.2427,-1.2441,-1.2445,-1.2451,-1.2436,-1.2495,-1.2501,-1.2506,-1.2525,-1.2532,-1.2442,-1.2442,-1.2442,-1.2441,0,-1.2395,-1.2412,-1.2431,-1.2438,-1.2446,-1.2468,-1.2457,-1.2466,-1.2455,-1.245,-1.2475,-1.2475,-1.2486,-1.2492,-1.2482,-1.2523,-1.2515,-1.2497,-1.2471,-1.2517,-1.2534,-1.2541,-1.2446,-1.2445,-1.2444,-1.2443,0,0,-1.2476,-1.2473,-1.248,-1.2483,-1.2483,-1.2496,-1.2517,-1.2527,-1.2536,-1.2541,-1.2559,-1.2578,-1.2561,-1.2567,-1.2556,-1.2573,-1.2616,-1.2553,-1.2553,-1.2566,-1.2662,-1.2676,-1.2685,-1.2606,-1.2607,-1.2608,-1.2662,0,-1.253,-1.2566,-1.2552,-1.2589,-1.2604,-1.258,-1.2599,-1.2601,-1.2596,-1.2608,-1.2603,-1.2617,-1.2594,-1.2597,-1.2612,-1.2608,-1.2636,-1.2604,-1.2623,-1.2623,-1.2624,-1.2694,-1.2709,-1.276,-1.2669,-1.267,-1.2671,0,-1.2598,-1.2605,-1.2644,-1.2641,-1.2647,-1.2664,-1.2672,-1.2684,-1.2686,-1.2681,-1.2687,-1.2672,-1.2693,-1.2665,-1.2693,-1.2672,-1.2678,-1.2677,-1.2678,-1.2681,-1.2651,-1.2699,-1.2776,-1.2784,-1.2681,-1.268,-1.268,0,-1.2654,-1.2673,-1.2699,-1.2701,-1.2699,-1.2711,-1.2711,-1.2711,-1.2718,-1.2725,-1.273,-1.2739,-1.2744,-1.2752,-1.274,-1.2721,-1.277,-1.2742,-1.2768,-1.2768,-1.278,-1.278,-1.286,-1.2782,-1.2782,-1.2782,-1.2782,0,-1.2717,-1.2741,-1.2724,-1.274,-1.2766,-1.275,-1.2777,-1.2774,-1.2774,-1.2789,-1.2768,-1.2783,-1.2766,-1.2779,-1.277,-1.2795,-1.2797,-1.2794,-1.2792,-1.2797,-1.2797,-1.2802,-1.2799,-1.2784,-1.2784,-1.2783,-1.2783,0,-1.2785,-1.2773,-1.28,-1.2795,-1.2794,-1.2814,-1.281,-1.2824,-1.2817,-1.2836,-1.284,-1.2829,-1.2843,-1.2832,-1.2846,-1.2839,-1.2873,-1.2864,-1.2872,-1.287,-1.2897,-1.2895,-1.2984,-1.2995,-1.291,-1.291,-1.2911,0,-1.2826,-1.2844,-1.2841,-1.2849,-1.285,-1.2864,-1.287,-1.2854,-1.2862,-1.2865,-1.288,-1.2891,-1.29,-1.2924,-1.2917,-1.2928,-1.292,-1.2951,-1.2922,-1.2926,-1.2922,-1.2921,-1.2923,-1.2957,-1.2958,-1.2959,-1.296,0,-1.2901,-1.2894,-1.2905,-1.2913,-1.2922,-1.2928,-1.2932,-1.294,-1.2924,-1.2933,-1.2947,-1.2954,-1.2967,-1.298,-1.2987,-1.2987,-1.2971,-1.2968,-1.2975,-1.2981,-1.2985,-1.2984,-1.2889,-1.2967,-1.2966,-1.2966,-1.2965,-1.2965,-1.2958,-1.2973,-1.2973,-1.2985,-1.2986,-1.299,-1.3004,-1.2998,-1.3009,-1.3019,-1.3008,-1.3025,-1.3026,-1.3035,-1.3036,-1.3049,-1.3036,-1.3046,-1.3048,-1.3051,-1.3056,-1.2982,-1.305,-1.305,-1.305,-1.3049,-1.3049,0,-1.3033,-1.3031,-1.3042,-1.3048,-1.3058,-1.3041,-1.3044,-1.3054,-1.3068,-1.307,-1.3079,-1.3095,-1.3106,-1.31,-1.311,-1.3122,-1.3115,-1.3125,-1.3125,-1.3125,-1.3066,-1.306,-1.3131,-1.3131,-1.3131,-1.313,-1.313,-1.313,-1.3073,-1.3098,-1.3091,-1.3116,-1.3114,-1.313,-1.3133,-1.3137,-1.3138,-1.3157,-1.3166,-1.3162,-1.316,-1.317,-1.318,-1.3178,-1.3183,-1.3196,-1.3192,-1.3137,-1.3129,-1.3121,-1.3116,-1.3197,-1.3197,-1.325,-1.325,-1.325]},{"header":{"parameterUnit":"m.s-1","parameterCategory":1,"la1":30.2991,"la2":30.254,"lo1":-89.0895,"lo2":-89.0444,"dy":0.0017,"dx":0.0017,"nx":28,"ny":28,"refTime":"2025-09-06T03:00:00:Z","depth":0,"parameterNumber":3,"parameterNumberName":"V-component_of_WINDS"},"data":[0,0,0,0,0,0,0,0,0,0,0,0,0,0,0,0,0,0,0,0,0,0,0,0,0,0,0,0,0,0,0,0,0,0,0,0,0,0,0,0,0,0,0,0,0,0,0,0,0,0,0,0,0,0,0,0,0,0,-5.7133,-5.7134,0,-5.7167,-5.7168,-5.7168,-5.7113,-5.7111,-5.7109,-5.7107,-5.7137,-5.714,-5.7142,0,0,0,0,0,0,0,0,0,0,0,0,0,-5.7016,-5.7019,-5.7133,-5.7134,-5.7134,-5.7167,-5.7168,-5.7168,-5.7113,-5.7111,-5.7109,-5.7106,-5.7136,-5.7139,-5.7142,0,0,0,0,0,0,0,0,0,0,0,0,0,-5.706,-5.7019,-5.7133,-5.7111,-5.7109,-5.7167,-5.7168,-5.7168,-5.7114,-5.7111,-5.7108,-5.7105,-5.7135,-5.7139,-5.7143,-5.7222,0,0,-5.7154,-5.7156,0,0,0,0,0,0,0,0,-5.7058,-5.7064,-5.7114,-5.7112,-5.7111,-5.7133,-5.7137,-5.7186,-5.7114,-5.7112,-5.7107,-5.7104,-5.7138,-5.7141,-5.7153,-5.7224,-5.7225,-5.7155,-5.7157,-5.7159,-5.716,0,0,0,0,0,0,0,-5.7055,-5.7063,-5.7146,-5.7114,-5.7113,-5.7097,-5.7101,-5.7146,-5.714,-5.7112,-5.7108,-5.7113,-5.7136,-5.715,-5.7154,-5.7226,-5.7155,-5.7158,-5.716,-5.7162,-5.7363,-5.7366,0,0,0,0,0,0,-5.7055,-5.7061,-5.7145,-5.7147,-5.7077,-5.7102,-5.7105,-5.7129,-5.7139,-5.7138,-5.7115,-5.711,-5.7145,-5.7149,-5.7155,-5.7249,-5.7159,-5.7162,-5.7164,-5.736,-5.7364,-5.7367,0,0,0,0,0,0,-5.7053,-5.7063,-5.7144,-5.7103,-5.7112,-5.7107,-5.7133,-5.7131,-5.7144,-5.7142,-5.714,-5.7131,-5.7143,-5.7149,-5.7206,-5.7249,-5.7164,-5.7167,-5.7357,-5.7361,-5.7366,-5.7439,0,0,0,0,0,0,-5.705,-5.7063,-5.7094,-5.7104,-5.7115,-5.7197,-5.7136,-5.7133,-5.7152,-5.7145,-5.7156,-5.7155,-5.7141,-5.7201,-5.721,-5.7253,-5.717,-5.7353,-5.7359,-5.7364,-5.7432,-5.7445,-5.7456,0,0,0,0,0,-5.7046,-5.7112,-5.7096,-5.7106,-5.7154,-5.7199,-5.7205,-5.7189,-5.7155,-5.7186,-5.7185,-5.7155,-5.7243,-5.7207,-5.7217,-5.7262,-5.735,-5.7357,-5.7364,-5.7427,-5.7443,-5.7456,0,0,0,0,0,0,-5.7105,-5.7113,-5.7095,-5.7167,-5.7183,-5.719,-5.7228,-5.7206,-5.7231,-5.7224,-5.7201,-5.7204,-5.7266,-5.7269,-5.7229,-5.734,-5.7291,-5.73,-5.7335,-5.735,-5.7362,-5.736,-5.7173,0,0,0,0,0,-5.7127,-5.7165,-5.7169,-5.7232,-5.7241,-5.7234,-5.7253,-5.7239,-5.7254,-5.726,-5.7263,-5.7278,-5.7309,-5.7329,-5.7358,-5.7433,-5.7434,-5.7468,-5.748,-5.749,-5.7498,-5.7538,-5.7553,-5.739,-5.739,-5.739,0,0,-5.7171,-5.718,-5.7205,-5.7244,-5.7255,-5.7293,-5.724,-5.7282,-5.731,-5.7266,-5.7321,-5.7324,-5.7338,-5.7405,-5.7434,-5.741,-5.7543,-5.7498,-5.7506,-5.7509,-5.7547,-5.7562,-5.7576,-5.7395,-5.7394,-5.7393,0,0,-5.7272,-5.7283,-5.7337,-5.735,-5.7368,-5.7363,-5.7376,-5.7387,-5.7387,-5.7442,-5.7411,-5.7443,-5.7497,-5.7509,-5.7522,-5.7629,-5.7602,-5.7639,-5.7701,-5.774,-5.7753,-5.7764,-5.7802,-5.7816,-5.7647,-5.7647,-5.7647,0,-5.7324,-5.7383,-5.7367,-5.7413,-5.7431,-5.7395,-5.7449,-5.7461,-5.7487,-5.7499,-5.7472,-5.754,-5.7547,-5.7616,-5.7642,-5.7654,-5.7668,-5.7637,-5.7752,-5.7764,-5.7774,-5.781,-5.7825,-5.7651,-5.7651,-5.765,-5.765,0,-5.7447,-5.7488,-5.7529,-5.7558,-5.758,-5.763,-5.762,-5.7644,-5.7629,-5.7626,-5.7683,-5.769,-5.772,-5.7735,-5.772,-5.7803,-5.7787,-5.7756,-5.7707,-5.7794,-5.7828,-5.7842,-5.7657,-5.7656,-5.7655,-5.7653,0,0,-5.7585,-5.7606,-5.7621,-5.7634,-5.7652,-5.7683,-5.773,-5.7761,-5.7783,-5.7801,-5.784,-5.7888,-5.786,-5.7875,-5.7861,-5.7895,-5.798,-5.786,-5.786,-5.7882,-5.8072,-5.8095,-5.8111,-5.7963,-5.7965,-5.7967,-5.807,0,-5.7687,-5.7771,-5.7759,-5.784,-5.7877,-5.7844,-5.7886,-5.79,-5.7899,-5.793,-5.7928,-5.7962,-5.7922,-5.7931,-5.7964,-5.7963,-5.8018,-5.7955,-5.7998,-5.7999,-5.7995,-5.8129,-5.8153,-5.825,-5.8083,-5.8086,-5.8087,0,-5.7816,-5.7842,-5.7928,-5.7941,-5.7956,-5.7994,-5.8022,-5.8052,-5.8068,-5.8064,-5.8082,-5.8062,-5.8108,-5.8058,-5.8121,-5.8079,-5.8096,-5.8098,-5.8101,-5.8104,-5.8049,-5.8136,-5.8281,-5.8296,-5.8108,-5.8106,-5.8105,0,-5.7909,-5.7966,-5.8025,-5.8036,-5.8053,-5.808,-5.8088,-5.8101,-5.8121,-5.8145,-5.8157,-5.8185,-5.8201,-5.8222,-5.8209,-5.8174,-5.8275,-5.8224,-5.8273,-5.8273,-5.8296,-5.8294,-5.8446,-5.8306,-5.8306,-5.8306,-5.8305,0,-5.8023,-5.8077,-5.8067,-5.8103,-5.8162,-5.8146,-5.8204,-5.8208,-5.822,-5.8255,-5.8227,-5.8261,-5.8242,-5.8273,-5.8263,-5.8318,-5.8324,-5.8322,-5.8319,-5.8325,-5.8326,-5.8336,-5.8329,-5.831,-5.8309,-5.8308,-5.8307,0,-5.8137,-5.8133,-5.8195,-5.8206,-5.821,-5.8253,-5.8262,-5.8295,-5.8293,-5.8338,-5.8347,-5.8342,-5.8378,-5.8368,-5.8406,-5.8399,-5.8468,-5.8455,-5.8463,-5.846,-5.851,-5.8506,-5.8673,-5.8694,-5.8541,-5.8543,-5.8544,0,-5.8211,-5.8252,-5.8268,-5.8291,-5.8302,-5.8338,-5.8359,-5.8345,-5.8367,-5.8389,-5.842,-5.8453,-5.848,-5.8538,-5.8537,-5.8566,-5.8554,-5.8611,-5.8558,-5.8563,-5.8556,-5.8554,-5.8557,-5.8622,-5.8623,-5.8625,-5.8626,0,-5.8342,-5.8338,-5.837,-5.8402,-5.8428,-5.8451,-5.8472,-5.8492,-5.8479,-5.8505,-5.8543,-5.8564,-5.8604,-5.8637,-5.8664,-5.867,-5.8646,-5.8643,-5.8656,-5.8662,-5.8665,-5.8665,-5.8492,-5.8639,-5.8638,-5.8637,-5.8636,-5.8635,-5.8438,-5.8473,-5.8491,-5.8527,-5.8542,-5.8563,-5.8595,-5.8597,-5.8629,-5.8662,-5.8651,-5.8694,-5.8708,-5.8742,-5.8752,-5.8784,-5.8762,-5.8781,-5.8786,-5.8791,-5.8797,-5.866,-5.8789,-5.8788,-5.8788,-5.8788,-5.8787,0,-5.8567,-5.8578,-5.8612,-5.8643,-5.8672,-5.8649,-5.8671,-5.8696,-5.8735,-5.8752,-5.8779,-5.8822,-5.8855,-5.8857,-5.8887,-5.8913,-5.8902,-5.8921,-5.8919,-5.8921,-5.8815,-5.8801,-5.8929,-5.8929,-5.8929,-5.8929,-5.8929,-5.8929,-5.8639,-5.8697,-5.8696,-5.8761,-5.877,-5.8814,-5.8829,-5.8847,-5.886,-5.8911,-5.8939,-5.894,-5.8951,-5.8982,-5.9011,-5.9011,-5.9023,-5.9046,-5.9042,-5.8942,-5.8928,-5.8915,-5.8902,-5.9049,-5.9049,-5.9145,-5.9146,-5.9147]}]]